Regional Weather Roundup
Issued by NWS Tiyan, Guam

Home | Current Version | Previous Version | Text Only | Print | Product List | Glossary On
Versions: 1 2 3 4 5 6 7 8 9 10 11 12 13 14 15 16 17 18 19 20 21 22 23 24 25 26 27 28
000
ASGM40 PGUM 180412
RWRGUM
WEATHER ROUNDUP FOR THE MARIANAS
NATIONAL WEATHER SERVICE TIYAN GU
200 PM GSST FRI APR 18 2014

GUZ001>004-180500-
MARIANA ISLANDS-

CITY           SKY/WX    TMP DP  RH WIND       PRES   REMARKS
GUAM AIRPORT   MOSUNNY   90  75  62 E12G21    29.77F HX 100
ANDERSEN AFB   PTSUNNY   84  77  79 NE16      29.78F HX  94
ROTA AIRPORT   PTSUNNY   82  77  83 E17       29.79F HX  91
TINIAN AP      PTSUNNY   84  75  74 E12       29.77F HX  92
SAIPAN AP      MOSUNNY   88  77  70 E13       29.78F HX 100

$$




USA.gov is the U.S. government's official web portal to all federal, state and local government web resources and services.